Regional Weather Roundup
Issued by NWS

Home | Current Version | Previous Version | Text Only | Print | Product List | Glossary Off
Versions: 1 2 3 4 5 6 7 8 9 10 11 12 13 14 15 16 17 18 19 20 21 22 23 24 25 26 27 28 29 30 31 32 33 34 35 36 37 38 39 40 41 42 43 44 45 46 47 48 49 50

000
ASUS45 KABQ 050510
RWRNM
NEW MEXICO REGIONAL WEATHER ROUNDUP
NATIONAL WEATHER SERVICE ALBUQUERQUE NM
1100 PM MDT FRI SEP 04 2015

NOTE: "FAIR" MEANS FEW OR NO CLOUDS BELOW 12,000 FEET AGL WITH NO
       SIGNIFICANT WEATHER OR OBSTRUCTIONS TO VISION.

      THIS PRODUCT IS RELEASED AS TWO VERSIONS.  ONE VERSION NEAR
      THE TOP OF THE HOUR CONTAINING PRELIMINARY DATA FROM ALBUQUERQUE
      AND OTHER STATIONS.  A FINAL VERSION WITH ADDITIONAL DATA IS
      ISSUED ABOUT 10 MINUTES AFTER THE HOUR.

NMZ501-503-504-510>518-050600-
NORTHWEST PLATEAU/NORTHCENTRAL MOUNTAINS

CITY           SKY/WX    TMP DP  RH WIND       PRES   REMARKS
FARMINGTON     CLOUDY    62  58  86 E10       30.10F
LOS ALAMOS     CLOUDY    57  53  86 S6        30.25F
SANTA FE       CLOUDY    60  56  86 CALM      30.21S
TAOS           CLOUDY    57  46  67 SE7       30.28R
ANGEL FIRE     RAIN      53  50  90 CALM      30.33S

$$
NMZ402-403-502-505>509-050600-
WESTCENTRAL MOUNTAINS/SOUTHWEST MOUNTAINS

CITY           SKY/WX    TMP DP  RH WIND       PRES   REMARKS
GALLUP         CLOUDY    59  53  80 SW3       30.18R
GRANTS         CLOUDY    59  56  91 SE7       30.21F
SILVER CITY      N/A     63  57  82 N10       30.18F

$$
NMZ407-409-411-412-050600-
SOUTHERN DESERTS

CITY           SKY/WX    TMP DP  RH WIND       PRES   REMARKS
LORDSBURG      CLOUDY    64  63  94 CALM      30.11S
DEMING         MOCLDY    67  61  81 CALM      30.11F
LAS CRUCES     CLOUDY    73  55  53 NW8       30.10S
HOLLOMAN AFB   CLOUDY    77  56  48 NE9       30.04R
ALAMOGORDO     CLOUDY    75  55  50 N10       30.06S
T OR C         LGT RAIN  68  60  75 SW5       30.13R

$$
NMZ519>523-050600-
CENTRAL VALLEYS/CENTRAL HIGHLANDS

CITY           SKY/WX    TMP DP  RH WIND       PRES   REMARKS
ALBUQUERQUE    CLOUDY    65  58  78 CALM      30.16S
DOUBLE EAGLE   CLOUDY    60  59  96 CALM      30.20S
MORIARTY ARPT  CLOUDY    61  56  85 CALM      30.21F
CLINES CORNERS CLOUDY    60  53  77 W9        30.24S
BELEN          FAIR      64  60  85 CALM      30.15S
SOCORRO        MOCLDY    67  59  76 CALM      30.12S

$$
NMZ524>526-539-540-050600-
SOUTHCENTRAL MOUNTAINS

CITY           SKY/WX    TMP DP  RH WIND       PRES   REMARKS
RUIDOSO        CLOUDY    63  52  67 W6        30.26S

$$
NMZ527>531-050600-
NORTHEAST HIGHLANDS/NORTHEAST PLAINS

CITY           SKY/WX    TMP DP  RH WIND       PRES   REMARKS
LAS VEGAS      CLOUDY    61  49  64 SW9       30.22S
RATON          LGT RAIN  64  51  62 SW7       30.15S
CLAYTON        CLOUDY    74  52  46 SW10      30.06F

$$
NMZ532>537-050600-
EASTCENTRAL PLAINS

CITY           SKY/WX    TMP DP  RH WIND       PRES   REMARKS
TUCUMCARI      CLOUDY    72  56  57 W7        30.03S
CANNON AFB     PTCLDY    74  53  48 S7        30.06S
CLOVIS AIRPORT PTCLDY    70  54  56 S7        30.08R

$$
NMZ028-029-538-050600-
SOUTHEAST PLAINS

CITY           SKY/WX    TMP DP  RH WIND       PRES   REMARKS
ROSWELL        PTCLDY    80  54  40 N8        30.01R
ARTESIA        PTCLDY    75  50  41 S8        30.00S
CARLSBAD       CLEAR     77  50  38 S8        29.97R
HOBBS            N/A     73  52  46 SE7       30.03S


$$



USA.gov is the U.S. government's official web portal to all federal, state and local government web resources and services.